Location: Oslo
(59.9170°N, 10.7500°E)
Time: 08:40:12
(UTC+02:00)

ISS - Pass Details

Date: 25 March 2019
Orbit: 408 x 410 km, 51.6° (Epoch: 26 April)

Event Time Altitude Azimuth Distance (km) Brightness Sun altitude
Rises 20:13:01 0° 222° (SW) 2,333 0.3 -11.7°
Reaches altitude 10° 20:15:44 10° 198° (SSW) 1,474 -1.1 -12.0°
Maximum altitude 20:17:42 15° 162° (SSE) 1,208 -1.8 -12.2°
Enters shadow 20:17:57 15° 156° (SSE) 1,212 -1.9 -12.2°
